Theta_e
309 308 307 307 306 305 303 301 295 308 307 292 296 292 295 298 297 298 296 296 294 291 291 288 288 288 293 298 297 291 292 287 282 285 292 294 292 290 287 281 280 283 281 281
309 308 307 307 306 305 299 297 299 309 306 289 289 295 295 297 296 295 293 293 295 294 289 285 291 292 297 298 295 292 291 285 280 282 286 291 287 289 288 288 286 281 279 281
308 307 306 306 305 305 301 299 293 300 299 297 293 292 292 291 299 297 297 294 295 292 289 291 290 290 295 298 296 299 295 288 283 279 283 286 285 287 289 288 280 283 284 286
306 306 306 305 305 305 301 299 295 296 289 290 292 293 294 292 291 297 296 292 291 290 285 288 287 290 292 295 298 297 293 286 287 288 290 290 288 288 289 286 287 283 286 287
304 304 305 305 305 304 302 293 291 293 290 294 293 293 292 291 292 292 290 290 292 291 286 288 286 289 290 289 294 290 294 286 288 285 290 290 288 289 289 290 290 289 290 289
303 303 304 305 305 304 298 299 299 295 291 292 289 289 291 292 292 294 295 293 290 289 291 294 295 295 294 293 291 290 286 286 285 279 289 288 281 288 290 291 292 290 286 291
303 303 303 303 304 304 298 300 298 293 287 289 289 291 293 291 291 291 294 294 291 295 301 298 296 295 295 295 296 292 287 287 286 281 284 275 287 295 294 291 292 294 293 295
302 302 302 302 302 303 298 299 299 294 287 290 291 292 292 293 293 291 292 295 299 300 295 289 286 288 292 294 295 292 293 289 283 278 277 285 289 291 290 288 287 295 293 295
302 302 302 302 302 302 299 299 305 298 291 288 293 291 293 288 289 289 293 296 299 296 292 290 281 278 287 285 290 296 295 293 287 282 277 272 287 293 296 293 283 295 293 292
301 302 302 302 302 302 298 296 300 299 291 293 294 290 289 293 292 289 291 292 292 297 291 286 281 282 291 280 282 285 286 287 282 283 280 284 291 295 295 280 285 293 293 293
301 301 302 302 302 302 299 296 300 297 293 293 296 296 294 293 292 288 291 289 292 290 288 289 287 283 287 284 289 284 285 283 283 285 281 276 295 293 287 292 295 295 295 295
301 301 302 301 303 304 304 295 301 302 297 294 299 297 298 297 296 294 294 292 291 292 290 290 288 284 286 285 277 292 282 288 285 286 285 295 296 295 298 297 296 296 296 297
301 301 301 301 303 304 303 300 299 297 294 293 294 295 300 306 302 303 293 295 296 295 298 293 291 284 287 279 283 288 292 294 287 288 292 294 297 298 297 299 297 298 299 300
300 301 301 301 302 303 302 297 298 296 294 288 290 301 298 302 301 304 303 300 300 299 298 293 291 287 291 288 288 288 292 295 293 291 293 295 297 296 298 299 299 298 300 302
301 301 302 302 302 302 300 298 299 299 293 288 289 295 300 302 304 302 303 301 297 297 293 291 289 293 292 292 292 290 297 294 289 287 294 294 293 297 300 298 297 299 300 300
301 301 301 302 302 301 297 294 303 304 301 291 285 295 296 300 304 302 302 301 299 298 294 292 294 296 293 289 288 293 299 301 300 294 298 297 296 298 300 298 298 300 300 301
301 301 301 301 302 300 294 294 300 305 302 292 287 288 299 303 304 302 299 302 298 297 295 292 292 293 294 291 288 295 300 301 299 297 296 294 295 294 299 299 299 301 300 301
301 301 301 301 303 302 297 303 304 304 298 295 287 287 292 303 299 297 303 299 298 296 294 294 292 293 295 290 295 300 301 301 298 296 297 296 297 299 298 298 299 297 297 299
301 301 302 301 300 299 302 307 307 306 298 289 289 286 284 300 298 300 299 300 291 297 291 292 294 293 290 295 298 299 300 297 295 297 296 296 296 298 297 296 297 295 296 297
301 301 298 296 300 307 306 300 296 294 295 293 288 292 288 295 293 293 294 298 292 290 293 296 292 292 300 301 302 301 301 299 297 293 292 294 294 297 296 295 297 296 296 296
295 290 292 297 305 298 294 293 291 290 287 290 290 293 291 300 293 292 296 292 295 289 294 292 290 291 297 302 302 304 301 300 298 296 295 296 295 297 296 295 296 296 296 296
293 293 295 298 297 295 291 290 294 291 288 293 292 294 296 298 300 294 295 292 293 288 297 293 289 295 299 301 303 302 301 300 298 297 296 297 298 298 297 296 296 295 296 296
299 293 292 294 292 285 286 285 289 288 294 295 295 292 296 296 296 292 291 289 288 297 289 289 291 297 301 303 303 302 302 302 301 297 297 298 298 299 297 296 297 295 295 295
294 291 281 287 288 290 289 287 289 293 294 292 292 291 293 296 292 291 286 291 292 287 286 287 292 299 302 304 304 302 301 303 300 297 298 298 298 297 299 297 296 295 293 293
291 291 281 288 291 292 292 292 291 293 293 291 290 290 291 290 289 289 288 286 285 286 285 291 297 300 302 301 304 302 303 303 300 298 297 298 298 298 297 298 297 296 295 294
292 290 287 291 290 289 289 290 289 293 292 292 292 290 288 288 288 286 286 284 283 285 287 296 298 299 302 301 303 305 304 304 301 299 299 299 299 297 297 297 297 296 296 294
289 289 293 292 291 289 290 291 291 294 291 287 288 285 282 289 284 283 285 283 285 291 293 297 298 299 300 301 303 304 304 305 303 301 300 299 300 300 299 295 296 296 297 296
Wind_Speed
18 22 24 26 26 29 11 5 1 4 2 1 3 3 10 14 12 5 5 7 5 8 9 7 12 12 7 15 8 3 3 5 10 20 20 14 13 6 3 2 3 5 4 9
17 19 21 25 24 20 7 7 3 3 3 1 3 7 13 14 15 6 3 4 3 2 6 6 5 11 10 9 7 4 2 3 7 9 4 5 2 10 5 5 2 7 5 6
19 19 21 23 26 23 7 4 4 3 3 5 7 8 6 12 9 10 14 5 6 5 6 6 8 14 8 9 3 5 6 4 7 8 14 11 14 12 13 4 2 12 12 13
20 20 21 22 27 27 4 3 4 4 5 5 10 10 9 10 9 6 9 7 11 8 6 12 11 10 18 14 5 4 2 6 12 18 20 21 19 20 18 17 18 13 22 20
19 19 20 21 24 31 3 4 5 6 7 9 8 12 6 9 9 8 9 8 11 11 10 12 19 14 12 10 9 2 5 4 6 17 19 18 20 14 17 18 17 10 12 8
18 18 18 19 20 19 4 3 2 3 7 7 7 6 13 12 8 1 6 11 12 13 16 15 16 15 18 18 12 5 1 3 4 6 8 12 9 3 6 8 9 6 5 7
16 17 17 17 16 13 4 4 2 3 5 7 8 17 12 14 14 10 10 7 10 9 10 15 16 20 20 17 8 10 6 5 4 6 6 2 1 15 9 11 9 10 8 9
16 15 15 15 14 14 6 5 3 3 6 8 15 13 13 13 9 12 16 13 7 9 8 7 8 6 1 7 8 8 5 2 4 3 3 12 7 8 7 9 14 5 10 15
14 14 14 14 13 13 6 7 3 1 4 6 12 13 10 7 9 8 9 17 10 5 3 3 3 4 5 2 5 7 8 5 2 3 4 4 4 7 10 8 6 11 13 12
14 14 14 14 13 12 6 6 6 3 5 11 6 7 10 8 8 6 9 7 8 7 1 2 3 4 6 2 2 3 3 2 6 6 6 6 0 10 10 1 4 15 15 17
14 14 15 14 12 10 5 7 9 4 5 14 18 19 14 11 6 4 4 7 6 4 3 2 3 3 4 4 5 4 3 3 3 3 4 6 5 8 2 5 14 14 13 18
14 15 15 15 15 14 9 5 6 7 6 10 20 24 25 26 25 11 3 3 3 3 4 4 4 4 4 6 4 6 2 4 3 4 6 3 3 6 6 13 13 8 14 17
14 15 16 15 17 15 9 5 7 7 8 12 7 10 12 13 17 16 7 3 6 4 2 2 2 3 3 3 5 7 4 4 4 3 6 7 5 5 8 9 10 12 14 16
15 16 16 16 17 16 13 7 7 6 4 5 7 12 9 20 14 9 12 11 4 4 2 3 2 3 3 4 9 13 11 5 3 6 9 5 5 7 9 9 7 15 13 14
16 17 17 16 16 17 12 9 8 8 5 4 9 20 8 12 6 13 11 8 5 2 2 3 3 3 3 5 7 8 2 4 3 3 4 4 6 8 5 5 9 12 13 14
18 18 18 17 17 15 5 3 6 4 3 2 6 7 12 15 5 13 12 10 5 3 2 3 3 3 3 5 5 4 11 13 3 2 4 4 11 9 7 3 10 12 11 11
20 20 19 17 15 6 5 3 2 3 3 1 6 6 5 9 4 3 2 4 3 3 2 3 3 4 4 4 8 7 10 9 3 7 2 4 11 10 5 7 9 12 9 8
23 21 19 15 16 9 5 3 10 6 1 2 3 7 5 4 4 2 2 2 3 3 2 2 4 3 4 5 9 7 12 6 8 6 3 5 13 4 7 7 7 9 8 9
26 22 22 3 3 3 2 4 11 2 1 2 2 4 5 4 2 4 2 3 3 3 4 4 3 4 6 6 2 6 8 5 8 6 5 9 10 9 8 8 9 10 10 11
28 5 3 3 3 7 7 2 2 2 1 2 3 4 6 7 4 3 3 3 2 3 6 3 5 5 6 5 6 9 1 9 7 6 8 8 11 8 9 9 8 9 10 10
5 5 4 5 6 3 5 4 3 3 2 2 4 5 5 4 4 4 3 4 3 3 1 3 3 1 4 3 4 6 6 8 5 6 3 8 7 9 10 8 9 10 10 10
6 6 7 4 3 3 3 3 2 0 1 3 3 4 2 3 4 3 5 4 3 3 3 4 1 8 13 17 7 5 5 8 5 7 7 7 9 10 9 7 8 8 9 10
3 4 4 1 3 1 3 3 2 3 0 2 6 6 2 2 0 3 3 5 4 8 2 4 3 11 11 8 5 4 4 7 6 8 8 8 11 11 8 6 7 7 8 9
4 5 3 3 3 2 2 5 4 2 3 8 8 5 3 3 2 2 4 5 4 4 4 1 3 14 9 6 4 4 6 6 8 7 10 9 10 10 9 8 7 8 9 9
3 1 2 3 3 5 6 6 7 4 5 8 7 9 5 3 2 2 4 4 3 6 5 6 8 13 13 14 10 2 5 3 6 7 7 7 7 9 8 7 7 8 9 9
3 4 4 4 4 5 5 5 5 4 3 5 5 3 6 4 4 2 5 6 5 4 6 7 9 14 12 11 15 15 13 5 7 6 6 7 6 7 9 7 7 8 9 11
3 4 5 3 3 3 4 2 3 3 5 1 3 5 1 4 3 5 6 5 5 8 10 9 11 12 13 11 10 13 15 4 6 6 7 6 5 5 7 8 7 9 8 8
Wind_Direction
345 346 343 341 345 344 345 310 356 200 156 9 214 286 307 342 342 36 308 303 324 14 329 323 313 304 312 336 36 12 69 264 285 284 282 294 293 46 94 127 315 244 234 270
348 344 346 340 345 2 319 314 268 251 113 24 315 305 349 320 347 332 279 289 19 306 290 305 298 306 302 331 41 38 24 326 305 305 265 11 62 297 262 231 202 246 266 270
348 350 345 345 339 346 332 295 339 4 329 6 359 343 327 326 310 329 357 269 284 287 297 302 291 308 295 315 103 159 142 217 244 262 275 288 286 274 281 260 312 274 272 280
348 351 349 349 340 340 332 321 16 3 315 332 312 297 294 296 339 12 6 333 330 355 337 315 294 311 316 304 313 98 221 250 231 257 270 270 267 266 272 253 253 261 272 267
352 352 349 353 350 338 115 14 3 344 291 290 291 277 343 342 337 340 318 295 334 335 307 287 295 296 291 271 290 333 164 280 278 278 269 267 275 297 285 291 291 13 356 4
352 352 354 357 360 353 7 9 343 316 287 298 345 338 340 312 306 11 297 308 314 303 284 282 292 286 280 275 280 60 153 255 280 261 321 327 305 354 326 2 352 2 355 278
347 350 354 355 1 9 330 322 282 305 286 319 320 318 330 331 323 325 332 312 280 266 315 317 294 271 261 263 164 148 185 229 265 278 311 255 205 43 20 348 2 330 284 318
347 347 350 351 354 348 327 303 299 300 286 307 297 338 320 329 358 336 310 322 340 349 327 302 307 309 127 109 149 186 223 105 280 286 290 274 309 30 22 7 309 20 358 342
342 342 342 344 345 342 323 299 313 242 305 243 354 315 299 314 325 312 306 330 332 303 258 257 276 289 269 305 128 195 198 206 184 327 284 265 55 3 1 294 268 26 351 326
333 334 334 336 335 331 325 286 313 271 271 273 270 311 310 305 297 282 300 341 314 308 270 259 250 262 327 352 10 200 206 188 242 240 262 272 206 346 329 85 333 331 335 317
326 327 327 330 328 324 329 292 287 273 272 284 272 278 283 302 286 267 320 334 7 304 310 313 321 327 310 331 331 257 191 241 233 225 244 278 194 343 253 318 300 293 306 295
321 321 323 318 317 323 329 272 296 321 250 266 294 274 264 256 252 261 196 250 12 288 309 13 314 328 295 331 283 318 292 193 240 222 233 236 325 262 268 290 292 301 299 296
317 317 316 314 312 317 320 292 290 288 276 289 263 264 284 243 222 220 233 199 202 225 101 289 277 274 350 289 267 287 297 145 220 210 250 244 291 258 279 295 290 308 297 296
312 311 313 308 306 309 309 284 283 281 280 284 288 333 312 302 295 202 198 213 147 143 145 269 246 253 236 263 283 283 263 169 231 238 259 308 248 287 301 308 305 312 306 299
310 311 309 309 309 309 303 270 252 240 246 295 301 305 263 307 242 204 180 186 205 206 192 220 253 246 274 243 255 257 54 299 235 253 155 226 300 325 335 331 331 313 311 316
310 308 309 310 314 317 297 279 55 272 183 325 304 327 292 297 195 191 182 192 195 191 189 210 238 245 243 265 278 275 23 306 269 29 24 340 333 325 342 305 324 319 316 314
307 307 308 307 307 294 253 329 310 32 65 266 292 281 272 299 152 141 170 151 173 176 197 220 243 253 232 247 254 277 324 278 106 84 2 322 349 328 48 17 322 315 320 329
305 304 303 300 295 283 261 244 209 145 164 237 286 280 276 29 352 8 36 188 142 193 228 215 229 251 216 255 260 282 280 259 136 118 55 320 311 60 49 9 338 340 348 346
303 305 297 263 201 232 355 72 144 57 78 299 268 296 296 342 213 224 168 162 195 166 223 224 208 223 229 231 7 295 302 53 141 95 25 355 339 35 45 14 352 358 355 359
305 288 201 142 220 146 136 168 180 150 151 237 277 279 277 311 290 290 327 162 220 231 218 207 211 247 277 189 183 234 329 79 69 51 10 342 4 27 41 23 4 6 1 4
353 351 15 305 266 220 215 186 211 139 224 206 241 238 277 259 293 289 249 267 218 257 120 245 227 171 265 145 210 263 91 105 94 103 15 53 8 45 32 13 22 13 10 14
312 295 281 258 265 249 287 254 129 245 196 215 258 263 250 284 313 308 314 271 289 263 189 237 49 345 334 326 167 132 92 102 74 85 45 49 45 74 51 15 17 18 9 16
238 199 239 214 260 304 254 319 204 310 350 277 281 289 211 18 345 281 302 279 264 319 247 53 339 305 310 315 110 105 98 103 75 91 69 40 58 78 61 46 25 15 18 23
241 216 288 233 196 240 313 12 68 221 319 325 309 310 244 176 217 318 287 301 302 303 12 32 304 350 358 284 65 36 36 28 72 95 74 48 61 59 74 67 43 30 27 26
268 282 248 234 356 341 11 356 2 48 337 316 314 289 248 175 143 193 290 286 312 23 357 331 357 343 6 10 327 329 301 115 73 93 91 79 65 79 70 84 73 51 47 36
262 222 267 284 338 351 5 6 336 344 304 301 286 307 343 40 337 260 13 4 31 348 303 352 352 8 14 31 337 332 314 111 96 83 93 96 78 98 102 88 86 69 63 58
260 237 233 272 353 352 325 351 341 344 335 336 300 14 131 303 20 26 17 336 311 319 331 334 352 7 0 357 347 346 337 357 124 123 111 116 123 107 115 107 97 97 81 81